RYR262 EIDW-EICK

Flight info

Callsign RYR262
Flight time 0h 26m
Altitude 24000
Route EIDW RW24L EIFE BARNU ROVAL RW16 EICK
Aircraft B737/M-VGD/A

Departure

Time 2026-04-30 22:02
Airport Dublin Airport (EIDW)

Arrival

Time 2026-04-30 22:28
Airport Cork International Airport (EICK)
Time Latitude Longitude Altitude Speed Heading
2026-04-30 21:56 53.43245 -6.24885 226 ft 0 kts 260°
2026-04-30 21:57 53.43244 -6.24893 226 ft 2 kts 261°
2026-04-30 21:57 53.43240 -6.25001 226 ft 17 kts 270°
2026-04-30 21:58 53.43245 -6.25244 226 ft 23 kts 272°
2026-04-30 21:58 53.43193 -6.25479 226 ft 21 kts 221°
2026-04-30 21:58 53.43091 -6.25480 228 ft 14 kts 152°
2026-04-30 21:58 53.42979 -6.25390 228 ft 22 kts 155°
2026-04-30 21:59 53.42826 -6.25253 226 ft 26 kts 140°
2026-04-30 21:59 53.42726 -6.25098 226 ft 16 kts 167°
2026-04-30 21:59 53.42590 -6.25022 228 ft 26 kts 156°
2026-04-30 22:00 53.42209 -6.24754 226 ft 14 kts 163°
2026-04-30 22:00 53.42053 -6.24931 227 ft 28 kts 228°
2026-04-30 22:00 53.42026 -6.25150 229 ft 12 kts 277°
2026-04-30 22:01 53.42030 -6.25205 229 ft 0 kts 276°
2026-04-30 22:01 53.42032 -6.25246 229 ft 9 kts 276°
2026-04-30 22:01 53.42044 -6.25432 229 ft 29 kts 275°
2026-04-30 22:01 53.42087 -6.26227 231 ft 107 kts 275°
2026-04-30 22:02 53.42169 -6.27758 371 ft 139 kts 275°
2026-04-30 22:02 53.42205 -6.29281 1079 ft 129 kts 263°
2026-04-30 22:02 53.42029 -6.30298 1354 ft 148 kts 247°
2026-04-30 22:02 53.41468 -6.32007 1769 ft 187 kts 239°
2026-04-30 22:03 53.40370 -6.34463 3123 ft 187 kts 226°
2026-04-30 22:03 53.39798 -6.35449 4143 ft 168 kts 225°
2026-04-30 22:03 53.39021 -6.36755 5362 ft 149 kts 225°
2026-04-30 22:03 53.38310 -6.37942 6210 ft 142 kts 225°
2026-04-30 22:04 53.37607 -6.39117 6896 ft 142 kts 225°
2026-04-30 22:04 53.36919 -6.40268 7540 ft 141 kts 225°
2026-04-30 22:04 53.35427 -6.42761 8309 ft 163 kts 225°
2026-04-30 22:05 53.34617 -6.44119 8374 ft 169 kts 225°
2026-04-30 22:05 53.33764 -6.45546 8393 ft 180 kts 225°
2026-04-30 22:05 53.32779 -6.47198 8428 ft 222 kts 225°
2026-04-30 22:05 53.31597 -6.49182 8446 ft 263 kts 225°
2026-04-30 22:06 53.30204 -6.51523 8468 ft 301 kts 225°
2026-04-30 22:06 53.27061 -6.56804 8452 ft 328 kts 225°
2026-04-30 22:06 53.25438 -6.59528 8399 ft 329 kts 225°
2026-04-30 22:07 53.23837 -6.62215 8386 ft 330 kts 225°
2026-04-30 22:07 53.22215 -6.64934 8381 ft 330 kts 225°
2026-04-30 22:07 53.20564 -6.67700 8417 ft 346 kts 225°
2026-04-30 22:07 53.18826 -6.70612 8757 ft 369 kts 225°
2026-04-30 22:08 53.16965 -6.73729 9117 ft 382 kts 225°
2026-04-30 22:08 53.15073 -6.76897 9467 ft 386 kts 225°
2026-04-30 22:08 53.13141 -6.79950 9804 ft 388 kts 222°
2026-04-30 22:08 53.11088 -6.82950 10140 ft 390 kts 221°
2026-04-30 22:09 53.09015 -6.85895 10472 ft 392 kts 220°
2026-04-30 22:09 53.06948 -6.88801 10805 ft 394 kts 220°
2026-04-30 22:09 53.04840 -6.91755 11132 ft 395 kts 220°
2026-04-30 22:09 53.02744 -6.94687 11453 ft 397 kts 220°
2026-04-30 22:10 53.00612 -6.97667 11787 ft 399 kts 220°
2026-04-30 22:10 52.98477 -7.00647 12113 ft 401 kts 220°
2026-04-30 22:10 52.96339 -7.03628 12438 ft 402 kts 220°
2026-04-30 22:10 52.94208 -7.06600 12748 ft 404 kts 220°
2026-04-30 22:11 52.89847 -7.12671 13414 ft 409 kts 220°
2026-04-30 22:11 52.87680 -7.15686 13739 ft 411 kts 220°
2026-04-30 22:11 52.85472 -7.18754 14065 ft 413 kts 220°
2026-04-30 22:12 52.83267 -7.21816 14390 ft 414 kts 220°
2026-04-30 22:12 52.81079 -7.24852 14712 ft 417 kts 220°
2026-04-30 22:12 52.78838 -7.27960 15038 ft 419 kts 220°
2026-04-30 22:12 52.76597 -7.31064 15366 ft 420 kts 220°
2026-04-30 22:13 52.74377 -7.34137 15695 ft 421 kts 220°
2026-04-30 22:13 52.72119 -7.37260 16013 ft 424 kts 220°
2026-04-30 22:13 52.69850 -7.40397 16339 ft 426 kts 220°
2026-04-30 22:13 52.67561 -7.43558 16666 ft 429 kts 220°
2026-04-30 22:14 52.65294 -7.46687 16984 ft 430 kts 220°
2026-04-30 22:14 52.62992 -7.49861 17313 ft 432 kts 220°
2026-04-30 22:14 52.60678 -7.53050 17630 ft 434 kts 220°
2026-04-30 22:14 52.58364 -7.56236 17962 ft 436 kts 220°
2026-04-30 22:15 52.56029 -7.59447 18283 ft 438 kts 220°
2026-04-30 22:15 52.53680 -7.62676 18614 ft 440 kts 220°
2026-04-30 22:15 52.51317 -7.65921 18940 ft 442 kts 220°
2026-04-30 22:15 52.48982 -7.69126 19268 ft 443 kts 220°
2026-04-30 22:16 52.46604 -7.72386 19583 ft 445 kts 220°
2026-04-30 22:16 52.44250 -7.75752 19899 ft 447 kts 223°
2026-04-30 22:17 52.37808 -7.86768 19517 ft 445 kts 227°
2026-04-30 22:17 52.35728 -7.90505 19355 ft 441 kts 228°
2026-04-30 22:17 52.31784 -7.97635 18510 ft 409 kts 229°
2026-04-30 22:18 52.30007 -8.01192 18008 ft 397 kts 232°
2026-04-30 22:18 52.26767 -8.08235 17033 ft 377 kts 234°
2026-04-30 22:19 52.23727 -8.14991 16057 ft 362 kts 234°
2026-04-30 22:19 52.22259 -8.18255 15570 ft 356 kts 234°
2026-04-30 22:19 52.19385 -8.24645 14602 ft 345 kts 234°
2026-04-30 22:20 52.17970 -8.27788 14019 ft 343 kts 234°
2026-04-30 22:20 52.15349 -8.33606 12645 ft 300 kts 234°
2026-04-30 22:20 52.14136 -8.36294 11958 ft 287 kts 234°
2026-04-30 22:21 52.12985 -8.38844 11215 ft 274 kts 234°
2026-04-30 22:21 52.11864 -8.41328 10333 ft 270 kts 234°
2026-04-30 22:21 52.10760 -8.43771 9465 ft 266 kts 234°
2026-04-30 22:21 52.09693 -8.46132 8668 ft 242 kts 234°
2026-04-30 22:22 52.08760 -8.48192 7855 ft 211 kts 234°
2026-04-30 22:22 52.07957 -8.49961 7023 ft 183 kts 234°
2026-04-30 22:22 52.07244 -8.51528 6169 ft 166 kts 234°
2026-04-30 22:22 52.06514 -8.53132 5332 ft 185 kts 234°
2026-04-30 22:23 52.05474 -8.54387 4495 ft 200 kts 197°
2026-04-30 22:23 52.04082 -8.54796 3926 ft 202 kts 187°
2026-04-30 22:23 52.02690 -8.55100 3468 ft 203 kts 189°
2026-04-30 22:23 52.01300 -8.55462 3174 ft 201 kts 189°
2026-04-30 22:24 51.99904 -8.55834 2986 ft 202 kts 189°
2026-04-30 22:24 51.98535 -8.56198 2789 ft 201 kts 189°
2026-04-30 22:24 51.97203 -8.56159 2576 ft 185 kts 166°
2026-04-30 22:24 51.96021 -8.55573 2372 ft 167 kts 162°
2026-04-30 22:25 51.94994 -8.55022 2260 ft 147 kts 163°
2026-04-30 22:25 51.94011 -8.54509 2164 ft 152 kts 163°
2026-04-30 22:25 51.93013 -8.53991 2108 ft 150 kts 163°
2026-04-30 22:25 51.92015 -8.53477 2062 ft 150 kts 164°
2026-04-30 22:26 51.90182 -8.52519 1784 ft 128 kts 161°
2026-04-30 22:26 51.89308 -8.52033 1422 ft 131 kts 163°
2026-04-30 22:26 51.88456 -8.51574 1118 ft 129 kts 162°
2026-04-30 22:27 51.87584 -8.51090 1137 ft 139 kts 161°
2026-04-30 22:27 51.86651 -8.50557 1079 ft 144 kts 161°
2026-04-30 22:27 51.84924 -8.49568 507 ft 107 kts 161°
2026-04-30 22:28 51.84313 -8.49204 505 ft 11 kts 129°
2026-04-30 22:28 51.84328 -8.49071 505 ft 19 kts 64°
2026-04-30 22:29 51.84552 -8.49078 505 ft 19 kts 342°
2026-04-30 22:29 51.84674 -8.49148 505 ft 19 kts 340°
2026-04-30 22:30 51.85063 -8.49241 505 ft 4 kts 68°
2026-04-30 22:31 51.85067 -8.49221 505 ft 0 kts 71°